sat.trackr.live / text

‹ back to catalog

STARLINK-1278

NORAD 45408 · 2020-019BA

PAYLOAD ACTIVE UNKNOWN

§ Identity

Operator
Country
US
Launch date
2020-03-18
Launch site
AFETR
Launch vehicle
Mass (kg)
RCS (m²)

Purposes: comms

External: N2YO · Heavens-Above · Gunter

§ Orbital elements

Epoch: 2026-05-25T05:08:42.724032Z

Period
91.87 min
Inclination
53.0393°
Eccentricity
0.0007710
Mean motion
15.67457441 rev/d
Perigee alt
361.0 km
Apogee alt
371.4 km
Semi-major
6,744.3 km
B*
7.5670e-4
RAAN
116.1573°
Arg perigee
33.8003°
Mean anomaly
326.3502°
Rev number
34,192

§ Raw data

STARLINK-12781 45408U 20019BA  26145.21438338  .00083979  00000+0  75670-3 0  99962 45408  53.0393 116.1573 0007710  33.8003 326.3502 15.67457441341926

JSON: /api/v1/satellites/45408 · /tle

For live sub-satellite position, see the globe view (requires WebGL).

§ Visibility from observer

Set your observer location to see the next 7 days of passes ≥ 10°. The values pass through the URL so the page stays shareable.

No JS? Fill the form by hand. The geolocation button needs JavaScript.